Wind_Speed
31 52 65 73 74 68 65 65 66 63 55 58 58 57 54 53 54 55 50 46 43 37 36 43 43 38 39 37 36 37 34 24 22 23 23 32 30 33 31 35 31 31 30 31
19 30 50 52 68 73 72 68 66 64 61 54 55 56 53 55 55 53 49 46 39 33 30 33 30 32 36 38 34 33 30 22 20 21 21 17 23 32 39 42 34 28 27 29
26 23 38 41 57 70 74 73 64 61 58 52 53 58 55 52 54 53 49 42 40 35 30 32 30 28 29 30 32 31 28 24 25 23 29 34 24 24 37 28 18 25 29 27
24 22 34 32 47 60 70 74 68 60 58 54 51 59 57 52 53 53 50 44 42 39 34 35 32 26 25 26 29 29 25 28 29 29 26 27 34 23 15 17 25 17 25 30
10 23 20 24 29 43 66 66 69 60 60 56 58 59 60 55 56 54 49 45 42 41 36 39 34 30 26 24 23 23 16 7 13 10 37 28 31 15 22 23 21 28 31 30
5 18 17 15 27 25 43 60 61 59 62 62 57 59 59 58 53 49 46 45 42 41 39 37 35 33 29 26 22 23 23 21 13 10 11 19 18 20 16 30 29 29 25 32
5 14 17 20 34 27 30 49 58 57 64 64 56 60 57 54 51 49 46 44 43 38 37 39 34 33 30 26 21 23 18 20 16 17 16 12 16 31 25 21 27 15 25 31
12 9 8 8 21 23 31 40 50 56 64 58 58 59 55 44 46 48 48 44 43 40 40 40 38 36 33 29 26 24 22 20 21 19 16 23 15 9 15 23 22 29 31 31
10 11 7 14 22 34 34 41 51 50 57 58 66 53 47 46 44 47 49 48 45 39 38 41 39 36 34 33 30 28 24 22 20 19 21 19 21 27 30 28 27 30 32 34
7 5 12 3 18 24 38 40 45 45 44 64 59 51 43 47 49 50 45 42 42 44 42 37 37 37 37 37 34 29 27 25 27 25 26 24 27 27 30 30 29 31 33 32
8 7 4 2 14 18 40 44 45 38 43 54 60 51 49 54 43 40 41 41 41 39 43 42 38 37 37 35 34 31 29 30 27 26 24 25 26 26 27 31 30 32 30 31
9 7 8 10 13 23 37 42 47 41 41 49 60 56 49 49 48 40 38 37 36 37 36 37 39 39 36 34 33 29 29 29 29 27 28 26 26 31 32 31 31 30 31 31
7 4 4 5 14 17 29 23 48 48 44 47 58 64 53 46 42 40 40 37 33 30 30 36 38 37 36 32 30 30 31 32 32 29 28 28 30 30 29 29 29 30 31 31
9 6 6 14 13 16 26 29 42 55 50 49 52 65 57 52 46 43 41 36 35 33 30 30 35 37 34 32 31 31 29 32 30 29 31 30 29 28 27 27 29 31 29 28
11 4 3 9 11 12 19 31 41 52 51 50 43 55 63 50 46 44 41 39 37 33 33 32 29 29 29 29 30 30 32 32 29 30 28 27 28 26 25 28 29 27 28 30
11 6 1 9 14 13 16 29 37 46 59 47 38 41 67 60 47 46 42 39 37 34 33 30 28 27 25 27 27 29 31 28 27 25 25 26 24 24 27 27 28 27 29 32
1 6 5 2 5 15 18 28 41 43 58 36 37 42 45 58 54 51 47 44 38 35 34 31 29 25 24 24 25 25 23 23 22 23 25 23 23 24 26 28 27 30 32 34
5 5 6 8 14 17 22 26 32 38 59 52 46 41 49 49 62 57 50 43 39 36 33 31 28 27 25 23 23 25 25 24 24 24 23 22 23 25 27 27 28 30 27 24
5 5 9 11 14 22 26 25 23 33 58 46 37 35 55 57 61 57 53 47 41 39 33 29 28 28 25 25 27 28 26 25 25 23 22 23 24 26 26 27 26 24 22 23
10 8 9 13 21 19 22 20 24 28 29 10 20 35 42 46 53 57 52 43 41 37 34 32 31 29 30 30 29 28 27 26 23 23 24 25 25 25 26 26 21 21 22 24
8 16 8 12 17 18 20 26 30 31 2 7 29 42 38 56 49 45 43 42 42 36 31 30 32 34 33 31 30 29 27 24 24 25 25 25 27 27 22 20 19 22 23 25
13 20 13 11 15 26 27 30 28 19 1 6 20 22 44 40 44 41 39 37 33 31 26 29 30 31 30 30 30 28 25 25 25 24 24 25 25 21 22 21 23 23 25 29
20 18 18 16 15 15 11 21 23 14 9 10 40 19 16 30 31 38 33 29 28 29 29 27 27 28 29 29 29 28 29 27 24 22 24 24 23 24 22 22 21 24 28 30
12 15 17 19 23 13 12 17 15 15 12 12 14 12 17 29 32 28 26 27 30 29 28 28 28 28 28 31 29 27 23 22 26 29 24 21 18 18 19 20 24 27 30 34
16 17 16 18 17 17 14 14 20 19 19 18 15 23 23 25 25 26 23 26 26 27 27 28 30 28 23 18 17 21 21 17 14 14 15 16 17 18 20 25 28 30 34 37
20 19 22 23 24 17 15 24 26 20 21 24 27 26 23 27 24 22 21 22 23 21 20 17 17 14 15 16 13 12 12 12 13 14 15 16 18 22 26 28 31 34 38 42
Wind_Direction
244 241 235 233 234 230 231 229 228 227 223 228 222 223 218 215 213 214 216 226 230 229 227 236 237 235 235 239 241 252 260 259 261 262 265 277 257 246 240 230 231 247 265 277
273 260 241 228 227 228 226 228 226 223 223 224 223 221 223 220 218 218 218 222 228 225 230 236 231 231 232 238 240 247 257 255 251 242 256 240 229 235 232 217 226 241 261 272
283 264 235 225 217 222 225 227 225 224 224 222 216 218 220 216 218 220 218 219 225 226 220 225 225 227 230 235 235 241 246 247 243 239 245 234 227 253 231 230 236 254 268 274
295 228 226 223 209 215 221 224 225 221 223 220 218 217 219 212 212 217 217 214 216 219 218 223 221 221 227 231 231 234 237 244 247 242 237 227 231 225 250 245 255 235 264 270
318 206 210 216 209 216 214 214 220 218 220 218 216 216 212 213 210 209 212 211 214 213 211 219 222 226 227 230 232 227 217 233 234 266 244 223 240 199 228 244 250 259 265 278
84 193 206 221 195 216 211 205 206 206 210 209 212 217 212 212 206 207 210 210 212 212 210 214 219 222 224 226 226 219 222 238 251 236 243 224 247 235 217 244 251 253 261 271
230 196 225 231 213 204 212 200 198 205 202 207 204 212 214 212 208 206 211 208 208 209 211 213 214 217 221 225 223 217 219 219 223 235 237 264 272 243 197 252 269 259 266 271
341 319 248 215 216 201 202 207 191 204 199 202 199 207 214 214 211 206 206 209 208 206 210 211 212 215 217 220 222 219 211 210 223 228 230 232 253 259 246 257 261 264 263 270
315 338 315 229 213 208 195 199 198 197 201 201 196 209 211 206 208 207 202 204 205 202 207 210 209 212 213 215 217 216 217 214 224 225 227 228 238 255 260 257 260 261 266 271
324 321 343 269 212 214 199 190 185 197 192 197 197 205 194 198 202 204 195 200 200 206 205 205 208 213 212 213 218 218 223 219 219 223 229 232 240 251 256 261 265 269 275 284
320 321 300 298 213 198 200 190 183 187 187 194 191 194 188 194 194 194 192 194 194 195 203 207 208 213 215 213 220 219 223 226 225 229 235 244 252 258 261 263 266 271 282 288
306 278 250 250 214 211 197 192 188 182 178 185 189 184 184 185 185 179 177 185 192 197 204 205 209 214 217 214 219 221 226 227 230 238 242 249 253 255 258 264 271 281 286 288
334 332 264 216 192 202 199 198 191 188 182 176 184 185 181 177 177 179 177 187 203 204 206 211 212 214 220 218 219 221 222 227 231 240 248 248 253 258 263 271 277 281 281 287
358 330 217 213 230 225 202 214 195 188 191 173 179 186 183 183 181 183 184 193 203 209 208 208 215 217 219 216 214 217 218 230 237 240 242 247 254 259 265 273 277 276 283 293
19 326 220 207 210 207 203 196 192 191 192 178 174 184 181 180 181 181 193 204 198 201 195 197 206 214 218 225 224 220 226 233 233 234 242 251 256 264 274 272 272 283 291 296
359 65 19 217 212 209 198 195 199 190 192 180 167 174 189 190 193 193 199 202 197 205 205 206 207 214 219 220 223 217 222 224 230 239 247 256 266 272 267 271 279 287 290 297
135 115 108 67 196 205 198 195 191 184 187 178 170 174 177 188 195 194 202 204 206 212 217 217 213 211 220 216 214 215 220 226 234 242 251 259 262 262 268 276 284 289 291 297
137 117 121 88 136 141 160 168 183 180 184 190 179 184 174 185 193 194 192 200 208 213 218 222 226 227 221 216 213 219 226 231 235 242 252 253 257 265 274 281 289 293 300 300
82 103 103 74 98 146 158 176 190 193 186 173 181 182 189 194 189 190 197 200 207 216 221 223 222 219 221 219 222 227 231 232 236 245 248 256 263 271 281 287 294 293 293 304
96 131 123 108 118 118 164 158 166 179 187 218 224 180 195 189 184 187 192 195 205 211 215 221 224 221 219 221 231 229 227 232 237 243 252 258 268 279 285 289 288 293 301 300
93 93 96 108 127 108 137 163 178 172 106 356 160 175 202 181 185 188 191 199 199 204 205 218 219 215 218 225 226 221 224 231 240 250 254 266 278 285 282 278 287 299 300 300
117 87 103 105 122 121 130 167 167 170 212 92 151 156 166 178 180 191 197 200 201 213 228 210 204 204 207 212 214 219 224 235 243 255 267 274 279 271 275 286 293 296 296 299
100 123 114 135 146 143 121 131 163 194 185 167 157 150 159 188 177 183 192 193 206 202 194 189 188 196 200 208 216 223 230 237 252 262 275 272 273 276 274 287 290 293 297 303
116 115 118 127 138 144 158 154 141 152 152 167 176 180 170 172 176 182 185 184 185 182 178 184 193 199 207 218 222 236 244 257 266 271 269 275 272 273 280 286 291 295 301 308
92 92 120 121 114 116 134 134 151 146 149 143 145 141 145 161 172 166 164 173 179 184 190 196 203 209 220 234 243 255 260 257 258 265 271 275 276 279 285 290 295 299 302 307
91 91 110 110 106 96 126 147 157 151 155 143 152 151 151 156 161 157 168 179 185 193 197 203 215 222 242 233 223 221 240 257 270 273 274 276 282 288 290 294 300 302 303 304
Height
5573 5574 5584 5604 5617 5638 5647 5653 5664 5681 5693 5697 5708 5719 5731 5739 5743 5752 5764 5772 5781 5791 5795 5796 5802 5809 5811 5813 5818 5819 5824 5830 5834 5839 5843 5840 5843 5844 5845 5846 5846 5848 5848 5850
5568 5567 5576 5586 5598 5612 5625 5634 5648 5664 5676 5684 5699 5706 5718 5728 5736 5746 5756 5765 5774 5781 5788 5789 5794 5799 5802 5805 5810 5812 5817 5824 5828 5834 5833 5832 5838 5839 5836 5833 5835 5839 5842 5843
5561 5561 5557 5562 5577 5590 5605 5621 5638 5654 5664 5671 5680 5690 5697 5714 5728 5736 5748 5761 5767 5774 5783 5785 5788 5790 5794 5799 5803 5806 5811 5818 5820 5824 5823 5824 5828 5828 5823 5827 5828 5829 5836 5836
5549 5548 5550 5553 5561 5577 5588 5609 5626 5640 5650 5659 5669 5678 5685 5704 5716 5725 5738 5751 5760 5767 5774 5779 5784 5785 5788 5792 5796 5799 5805 5811 5812 5816 5818 5817 5819 5820 5819 5822 5820 5810 5827 5827
5541 5543 5549 5553 5561 5567 5580 5597 5612 5628 5640 5647 5654 5663 5678 5691 5701 5715 5731 5743 5752 5759 5766 5771 5778 5781 5784 5787 5790 5794 5798 5801 5806 5808 5806 5806 5810 5813 5817 5819 5822 5823 5822 5821
5545 5547 5551 5555 5559 5564 5574 5581 5596 5614 5623 5625 5646 5653 5667 5677 5698 5717 5724 5736 5745 5752 5758 5763 5771 5777 5781 5783 5787 5790 5792 5795 5800 5802 5798 5782 5803 5802 5810 5817 5816 5813 5814 5814
5547 5550 5551 5552 5556 5562 5566 5576 5586 5598 5605 5617 5641 5642 5660 5679 5697 5707 5718 5727 5736 5744 5750 5757 5766 5771 5776 5779 5784 5786 5788 5792 5796 5798 5800 5800 5803 5801 5804 5808 5808 5798 5807 5808
5549 5550 5548 5551 5554 5559 5563 5573 5578 5584 5596 5620 5634 5634 5658 5683 5691 5701 5708 5718 5727 5736 5742 5751 5759 5765 5770 5774 5778 5781 5785 5787 5789 5793 5797 5800 5800 5791 5785 5804 5808 5805 5805 5801
5551 5549 5549 5548 5553 5556 5561 5564 5581 5585 5601 5614 5621 5644 5660 5669 5680 5687 5696 5707 5720 5730 5735 5743 5751 5758 5764 5768 5772 5777 5780 5783 5785 5787 5793 5798 5800 5798 5796 5798 5800 5799 5796 5793
5551 5550 5548 5546 5549 5551 5558 5568 5575 5582 5590 5604 5620 5639 5652 5661 5668 5678 5692 5704 5713 5722 5728 5738 5746 5752 5758 5762 5766 5772 5776 5778 5781 5785 5790 5793 5795 5796 5794 5793 5791 5790 5787 5787
5548 5548 5548 5547 5548 5550 5556 5561 5570 5580 5589 5602 5617 5633 5649 5654 5662 5673 5687 5696 5706 5714 5724 5734 5740 5746 5752 5758 5762 5767 5772 5774 5778 5780 5782 5784 5786 5787 5788 5787 5786 5784 5784 5783
5546 5545 5545 5544 5545 5549 5555 5563 5571 5578 5589 5597 5615 5632 5640 5649 5659 5668 5680 5690 5701 5710 5720 5727 5733 5740 5747 5754 5758 5763 5767 5768 5770 5772 5775 5779 5782 5782 5782 5781 5781 5780 5779 5777
5545 5544 5544 5544 5546 5548 5553 5558 5566 5578 5588 5595 5608 5624 5638 5646 5655 5665 5677 5687 5698 5707 5715 5721 5727 5733 5740 5748 5756 5758 5760 5763 5765 5768 5771 5772 5772 5773 5774 5775 5774 5774 5773 5771
5543 5542 5542 5544 5544 5545 5552 5557 5564 5575 5581 5592 5600 5615 5631 5642 5652 5661 5672 5682 5692 5701 5710 5717 5723 5729 5734 5743 5748 5750 5755 5759 5762 5764 5765 5766 5768 5769 5769 5769 5769 5768 5766 5764
5543 5541 5541 5541 5542 5545 5549 5555 5561 5573 5581 5593 5601 5611 5624 5638 5649 5657 5668 5678 5686 5696 5705 5711 5717 5724 5730 5736 5742 5747 5749 5752 5755 5758 5760 5761 5762 5763 5763 5763 5762 5760 5758 5756
5544 5541 5540 5540 5540 5543 5545 5553 5560 5568 5577 5590 5602 5611 5623 5637 5645 5653 5663 5673 5683 5691 5700 5708 5715 5720 5725 5730 5735 5739 5743 5747 5750 5752 5753 5755 5757 5757 5757 5756 5755 5754 5753 5751
5544 5541 5541 5539 5539 5541 5545 5548 5558 5570 5582 5593 5603 5613 5621 5634 5641 5649 5658 5669 5679 5688 5696 5704 5710 5716 5720 5725 5729 5733 5738 5741 5744 5746 5749 5751 5752 5752 5752 5751 5750 5749 5747 5743
5545 5544 5544 5543 5542 5544 5548 5554 5562 5575 5587 5594 5603 5610 5620 5626 5634 5646 5658 5670 5678 5686 5694 5700 5706 5712 5717 5722 5726 5730 5733 5736 5739 5742 5744 5746 5746 5747 5747 5746 5745 5742 5740 5737
5549 5547 5548 5545 5545 5550 5554 5561 5566 5576 5588 5596 5601 5605 5609 5612 5629 5644 5655 5666 5676 5684 5691 5697 5703 5708 5714 5719 5723 5726 5729 5732 5735 5738 5740 5741 5741 5741 5741 5739 5737 5735 5733 5730
5553 5551 5553 5553 5553 5556 5560 5568 5573 5582 5588 5594 5599 5603 5610 5618 5632 5641 5653 5665 5673 5681 5688 5693 5698 5704 5710 5715 5719 5722 5725 5729 5732 5735 5736 5736 5737 5736 5734 5733 5731 5729 5727 5725
5556 5556 5555 5557 5560 5562 5567 5577 5582 5591 5597 5592 5596 5604 5606 5622 5636 5647 5656 5664 5670 5677 5684 5688 5693 5698 5704 5710 5715 5719 5722 5726 5729 5730 5731 5731 5730 5729 5728 5726 5725 5723 5720 5719
5563 5563 5563 5564 5568 5573 5580 5585 5591 5596 5600 5598 5600 5608 5609 5621 5638 5648 5656 5664 5669 5675 5680 5684 5689 5695 5701 5708 5713 5717 5720 5722 5724 5726 5726 5726 5724 5723 5722 5720 5718 5716 5715 5713
5570 5573 5574 5574 5576 5579 5584 5589 5598 5600 5602 5607 5607 5612 5619 5629 5636 5648 5653 5660 5667 5673 5679 5683 5689 5696 5702 5707 5711 5714 5716 5719 5720 5720 5720 5718 5717 5716 5715 5713 5711 5710 5709 5706
5573 5578 5580 5583 5584 5586 5587 5592 5594 5599 5603 5609 5612 5618 5624 5632 5639 5647 5654 5661 5667 5674 5679 5685 5691 5696 5700 5704 5707 5710 5711 5713 5713 5713 5712 5712 5711 5710 5709 5707 5706 5704 5702 5698
5582 5584 5585 5587 5588 5590 5590 5592 5597 5603 5607 5613 5618 5622 5630 5637 5646 5651 5657 5663 5670 5675 5681 5686 5690 5694 5698 5701 5704 5707 5708 5708 5707 5707 5707 5707 5706 5705 5704 5703 5700 5697 5693 5689
5589 5589 5590 5591 5593 5593 5593 5594 5600 5608 5612 5617 5624 5629 5635 5640 5650 5655 5660 5666 5671 5676 5681 5685 5689 5693 5696 5698 5701 5703 5704 5703 5703 5703 5703 5703 5701 5700 5698 5696 5692 5689 5685 5680